Scout Lake Weather Center

Moon Phase Calendar



Scout Lake Water Level
Online Cameras

 


      

Current Conditions in Kamas
11/28/2022 2:03:42 AM

20°F
Feels Like 9
Snow
Humidity
91%
Pressure
29.85"
Wind
8.8 mph (SW)
Dew Point
18°F
UV Index
0/10 (Low)
Visibility
1 mi

Hourly Forecast

Date & Time Mon, Nov 28
2:00 AM
Mon, Nov 28
3:00 AM
Mon, Nov 28
4:00 AM
Mon, Nov 28
5:00 AM
Mon, Nov 28
6:00 AM
Mon, Nov 28
7:00 AM
Mon, Nov 28
8:00 AM
Mon, Nov 28
9:00 AM
Mon, Nov 28
10:00 AM
Mon, Nov 28
11:00 AM
Mon, Nov 28
12:00 PM
Mon, Nov 28
1:00 PM
Mon, Nov 28
2:00 PM
Mon, Nov 28
3:00 PM
Mon, Nov 28
4:00 PM
Mon, Nov 28
5:00 PM
Mon, Nov 28
6:00 PM
Mon, Nov 28
7:00 PM
Mon, Nov 28
8:00 PM
Mon, Nov 28
9:00 PM
Mon, Nov 28
10:00 PM
Mon, Nov 28
11:00 PM
Tue, Nov 29
12:00 AM
Tue, Nov 29
1:00 AM
Tue, Nov 29
2:00 AM
Tue, Nov 29
3:00 AM
Tue, Nov 29
4:00 AM
Tue, Nov 29
5:00 AM
Tue, Nov 29
6:00 AM
Tue, Nov 29
7:00 AM
Tue, Nov 29
8:00 AM
Tue, Nov 29
9:00 AM
Tue, Nov 29
10:00 AM
Tue, Nov 29
11:00 AM
Tue, Nov 29
12:00 PM
Tue, Nov 29
1:00 PM
Tue, Nov 29
2:00 PM
Tue, Nov 29
3:00 PM
Tue, Nov 29
4:00 PM
Tue, Nov 29
5:00 PM
Tue, Nov 29
6:00 PM
Tue, Nov 29
7:00 PM
Tue, Nov 29
8:00 PM
Tue, Nov 29
9:00 PM
Tue, Nov 29
10:00 PM
Tue, Nov 29
11:00 PM
Wed, Nov 30
12:00 AM
Wed, Nov 30
1:00 AM
Condition
Snow

Snow

Clouds

Snow

Snow

Snow

Snow

Snow

Snow

Snow

Snow

Snow

Snow

Snow

Snow

Snow

Snow

Snow

Snow

Snow

Snow

Snow

Snow

Snow

Snow

Snow

Snow

Snow

Snow

Snow

Clouds

Clouds

Clouds

Clouds

Clouds

Snow

Snow

Snow

Clouds

Clouds

Clouds

Clouds

Clouds

Clouds

Clouds

Clouds

Clouds

Clouds
Temperature 20°F18°F17°F17°F16°F15°F15°F16°F17°F18°F17°F17°F16°F15°F13°F11°F10°F9°F8°F7°F7°F7°F0°F4°F5°F-2°F2°F3°F2°F0°F-6°F1°F3°F4°F5°F5°F5°F4°F2°F-6°F-10°F-10°F-10°F-9°F-7°F-5°F-4°F-2°F
Feels Like 9°F8°F8°F5°F5°F4°F4°F5°F5°F5°F5°F4°F3°F4°F3°F3°F2°F0°F1°F7°F7°F7°F0°F-2°F5°F-2°F-9°F-7°F-9°F-10°F-6°F-8°F-10°F-8°F-8°F-7°F-7°F-9°F-10°F-6°F-10°F-10°F-10°F-17°F-17°F-16°F-15°F-13°F
Cloudiness 90%90%91%92%97%99%99%100%100%99%100%100%100%100%100%100%99%100%100%99%99%99%100%100%100%97%97%98%100%100%96%93%91%85%73%85%90%92%93%93%38%41%38%29%25%23%15%11%
Visibility 1 mi1 mi0 mi0 mi0 mi0 mi0 mi0 mi1 mi1 mi2 mi0 mi0 mi0 mi0 mi0 mi0 mi0 mi1 mi0 mi0 mi3 mi1 mi0 mi2 mi1 mi0 mi1 mi0 mi6 mi6 mi6 mi6 mi6 mi6 mi1 mi1 mi2 mi4 mi6 mi6 mi6 mi6 mi6 mi6 mi6 mi6 mi6 mi
Precipitation 35%23%43%47%60%64%66%70%74%74%66%68%72%77%85%87%70%70%72%73%73%72%23%39%40%43%49%53%51%45%29%29%21%20%19%25%33%39%39%35%0%0%0%0%0%0%0%0%
Humidity 91%92%92%93%94%94%95%93%90%89%86%87%90%91%94%96%96%96%95%97%96%96%99%97%97%99%98%96%97%95%97%80%69%70%73%81%88%88%88%98%99%97%88%77%72%69%68%68%
Dew Point 18°F17°F15°F15°F15°F15°F15°F15°F16°F16°F15°F15°F14°F14°F12°F10°F9°F8°F7°F6°F6°F6°F-1°F3°F4°F-4°F1°F1°F1°F-2°F-8°F-5°F-6°F-4°F-2°F0°F2°F0°F-2°F-8°F-13°F-14°F-15°F-16°F-16°F-15°F-14°F-12°F
Pressure 29.85"29.85"29.85"29.83"29.77"29.74"29.71"29.71"29.68"29.65"29.65"29.62"29.65"29.62"29.68"29.71"29.71"29.77"29.77"29.8"29.8"29.77"29.88"29.83"29.83"29.97"29.91"29.91"29.97"30.06"30.21"30.12"30.12"30.12"30.12"30.12"30.12"30.18"30.24"30.42"30.56"30.59"30.62"30.59"30.56"30.53"30.5"30.47"
Wind Speed 8.8 mph7.9 mph6.5 mph8.9 mph9 mph8.2 mph8.7 mph9.1 mph10.4 mph14.4 mph16.8 mph15.3 mph11 mph8.1 mph5.9 mph4.4 mph4.4 mph5.5 mph4.1 mph2.6 mph1.2 mph1.5 mph1.7 mph3.1 mph2.3 mph2.8 mph5.6 mph4.9 mph6.2 mph4.5 mph1.7 mph4.4 mph7.4 mph9 mph9.9 mph9.7 mph13.2 mph12.4 mph6.4 mph2.1 mph0.6 mph1.6 mph2.4 mph3.3 mph4 mph4.4 mph4.8 mph5 mph
Wind
Direction
232°
SW
228°
SW
222°
SW
226°
SW
232°
SW
227°
SW
227°
SW
236°
SW
238°
WSW
239°
WSW
253°
WSW
268°
W
276°
W
291°
WNW
297°
WNW
310°
NW
337°
NNW
326°
NW
335°
NNW
330°
NNW
257°
WSW
185°
S
249°
WSW
267°
W
274°
W
304°
NW
309°
NW
326°
NW
332°
NNW
336°
NNW
14°
NNE
304°
NW
302°
WNW
303°
WNW
301°
WNW
296°
WNW
284°
WNW
283°
WNW
279°
W
273°
W
20°
NNE
97°
E
117°
ESE
122°
ESE
129°
SE
139°
SE
138°
SE
140°
SE

Daily Forecast

Date High Low Precip. Humidity
Today
Nov 28

Snow
20 °F
7 °F
87%
86%
Tuesday
Nov 29

Snow
5 °F
-10 °F
53%
70%
Wednesday
Nov 30

Clouds
22 °F
-1 °F
0%
62%
Thursday
Dec 1

Snow
23 °F
9 °F
57%
70%
Friday
Dec 2

Snow
19 °F
-1 °F
98%
61%
Saturday
Dec 3

Snow
23 °F
12 °F
74%
90%
Sunday
Dec 4

Snow
22 °F
6 °F
100%
95%
Monday
Dec 5

Snow
13 °F
-5 °F
47%
87%
Tuesday
Dec 6

Snow
10 °F
-6 °F
37%
89%
Wednesday
Dec 7

Clear
23 °F
-2 °F
0%
63%
Thursday
Dec 8

Clear
26 °F
2 °F
0%
58%
Friday
Dec 9

Clear
28 °F
7 °F
0%
66%
Saturday
Dec 10

Clouds
29 °F
10 °F
0%
64%
Sunday
Dec 11

Clouds
30 °F
9 °F
0%
68%
Monday
Dec 12

Clouds
32 °F
15 °F
0%
91%
Tuesday
Dec 13

Clouds
34 °F
20 °F
0%
62%

Temperature 8-14 Day Outlook



Precipitation 8-14 Day Outlook




Quick Links
Scout Lake News
Scout Lake Photos
Scout Lake Videos




About Us
Contact Us
Site Map
Search Site
Advertise With Us
   
Scout.LakesOnline.com
THE SCOUT LAKE WEBSITE

Copyright 2022, Lakes Online
Privacy    |    Legal